Monroe, WI

7:01 PM CST on December 06, 2019 (GMT -0600)
Monroe Municipal

Weather History for KEFT - August, 2019

Change the Weather History Date:

Wednesday, August 7, 2019

  Actual Average Record
Temperature  
Mean Temperature 78 °F -  
Max Temperature 84 °F 82 °F 91 °F (2001)
Min Temperature 73 °F 60 °F 21 °F (1998)
Cooling Degree Days 14    
Growing Degree Days 28 (Base 50)    
Moisture  
Dew Point 63 °F    
Average Humidity 57    
Maximum Humidity 74    
Minimum Humidity 46    
Precipitation  
Precipitation 0.00 in - - ()
Sea Level Pressure  
Sea Level Pressure 29.83 in    
Wind  
Wind Speed 12 mph (WSW)    
Max Wind Speed 15 mph    
Max Gust Speed 22 mph    
Visibility 10 miles    
Events      
Averages and records for this station are not official NWS values.
T = Trace of Precipitation, MM = Missing Value Source: NWS Daily Summary

Daily Weather History Graph

Daily Weather History Graph

Search for Another Location

Airport or City:

Astronomy

Aug. 07, 2019 Rise Set
Actual Time 5:56 AM CDT 8:11 PM CDT
Civil Twilight 5:24 AM CDT 8:42 PM CDT
Nautical Twilight 4:46 AM CDT 9:20 PM CDT
Astronomical Twilight 4:03 AM CDT 10:03 PM CDT
Moon 1:38 PM CDT No Moon Set
Length of Visible Light 15h 17m
Length of Day
14h 14m
Waxing Crescent, 50% of the Moon is Illuminated
Aug 7
Waxing Crescent
Aug 7
First Quarter
Aug 15
Full
Aug 23
Last Quarter
Aug 30
New

Hourly Weather History & Observations

Time (CDT) Temp. Heat Index Dew Point Humidity Pressure Visibility Wind Dir Wind Speed Gust Speed Precip Events Conditions
9:55 AM 77.5 °F - 61.9 °F 58% 29.87 in 10.0 mi West 10.4 mph - N/A   Clear
10:15 AM 77.9 °F - 61.5 °F 57% 29.88 in 10.0 mi West 13.8 mph - N/A   Clear
10:35 AM 78.6 °F - 61.3 °F 55% 29.88 in 10.0 mi WSW 10.4 mph - N/A   Clear
10:55 AM 79.5 °F - 62.4 °F 56% 29.88 in 10.0 mi West 10.4 mph - N/A   Clear
11:15 AM 79.9 °F - 61.2 °F 53% 29.88 in 10.0 mi West 13.8 mph 17.3 mph N/A   Clear
11:35 AM 80.6 °F 81.2 °F 60.1 °F 49% 29.88 in 10.0 mi WSW 13.8 mph - N/A   Scattered Clouds
11:55 AM 80.6 °F 81.2 °F 60.1 °F 49% 29.88 in 10.0 mi West 13.8 mph 20.7 mph N/A   Scattered Clouds
12:15 PM 80.2 °F 80.8 °F 59.2 °F 48% 29.87 in 10.0 mi WSW 13.8 mph - N/A   Clear
12:35 PM 80.4 °F 81.4 °F 61.5 °F 52% 29.86 in 10.0 mi West 12.7 mph - N/A   Clear
12:55 PM 80.8 °F 81.5 °F 60.4 °F 50% 29.86 in 10.0 mi West 12.7 mph 21.9 mph N/A   Clear
1:15 PM 81.1 °F 81.8 °F 60.4 °F 49% 29.85 in 10.0 mi WSW 9.2 mph 16.1 mph N/A   Clear
1:35 PM 81.7 °F 82.6 °F 61.7 °F 51% 29.85 in 10.0 mi WSW 11.5 mph 17.3 mph N/A   Clear
1:55 PM 82.4 °F 83.2 °F 61.9 °F 50% 29.85 in 10.0 mi SW 9.2 mph 17.3 mph N/A   Clear
2:15 PM 82.0 °F 82.8 °F 61.9 °F 50% 29.85 in 10.0 mi West 11.5 mph 18.4 mph N/A   Clear
2:35 PM 82.8 °F 83.4 °F 61.5 °F 49% 29.84 in 10.0 mi WSW 13.8 mph - N/A   Clear
2:55 PM 83.1 °F 83.9 °F 62.2 °F 49% 29.83 in 10.0 mi SW 11.5 mph - N/A   Clear
3:15 PM 83.3 °F 84.1 °F 62.2 °F 49% 29.83 in 10.0 mi WSW 11.5 mph 17.3 mph N/A   Scattered Clouds
3:35 PM 83.7 °F 84.1 °F 61.7 °F 47% 29.83 in 10.0 mi SW 13.8 mph 18.4 mph N/A   Scattered Clouds
3:55 PM 84.2 °F 84.6 °F 61.5 °F 46% 29.82 in 10.0 mi SW 13.8 mph 18.4 mph N/A   Scattered Clouds
4:15 PM 84.4 °F 85.0 °F 62.4 °F 47% 29.82 in 10.0 mi SW 13.8 mph - N/A   Scattered Clouds
5:15 PM 83.7 °F 84.3 °F 61.9 °F 48% 29.81 in 10.0 mi WSW 12.7 mph 18.4 mph N/A   Clear
5:35 PM 82.8 °F 83.6 °F 62.2 °F 50% 29.81 in 10.0 mi WSW 12.7 mph 18.4 mph N/A   Clear
5:55 PM 82.8 °F 83.8 °F 62.8 °F 51% 29.80 in 10.0 mi SW 15.0 mph - N/A   Clear
6:15 PM 82.8 °F 84.0 °F 63.5 °F 52% 29.80 in 10.0 mi SW 15.0 mph - N/A   Clear
6:35 PM 82.0 °F 83.3 °F 63.1 °F 53% 29.79 in 10.0 mi SW 11.5 mph - N/A   Clear
6:55 PM 81.7 °F 83.0 °F 63.7 °F 54% 29.79 in 10.0 mi SW 11.5 mph 18.4 mph N/A   Clear
7:15 PM 80.6 °F 81.9 °F 63.3 °F 55% 29.79 in 10.0 mi SW 11.5 mph 17.3 mph N/A   Clear
7:35 PM 79.7 °F - 63.1 °F 57% 29.79 in 10.0 mi WSW 13.8 mph - N/A   Clear
7:55 PM 78.4 °F - 63.7 °F 60% 29.79 in 10.0 mi SW 9.2 mph 17.3 mph N/A   Clear
8:15 PM 77.5 °F - 64.0 °F 63% 29.78 in 10.0 mi SW 9.2 mph - N/A   Clear
8:35 PM 76.1 °F - 64.4 °F 67% 29.78 in 10.0 mi SW 10.4 mph - N/A   Clear
8:55 PM 75.7 °F - 63.9 °F 66% 29.79 in 10.0 mi SW 10.4 mph - N/A   Clear
9:15 PM 74.8 °F - 63.9 °F 69% 29.78 in 10.0 mi SW 11.5 mph - N/A   Clear
9:35 PM 75.2 °F - 63.9 °F 68% 29.79 in 10.0 mi SW 11.5 mph - N/A   Clear
9:55 PM 75.0 °F - 63.9 °F 68% 29.80 in 10.0 mi SW 11.5 mph - N/A   Clear
10:15 PM 73.9 °F - 63.9 °F 71% 29.79 in 10.0 mi SW 11.5 mph - N/A   Clear
10:35 PM 73.4 °F - 64.0 °F 72% 29.80 in 10.0 mi SW 10.4 mph 17.3 mph N/A   Clear
10:55 PM 74.3 °F - 63.9 °F 70% 29.80 in 10.0 mi WSW 9.2 mph - N/A   Clear
11:15 PM 73.9 °F - 64.2 °F 72% 29.81 in 10.0 mi WSW 15.0 mph - N/A   Clear
11:35 PM 73.8 °F - 64.4 °F 72% 29.81 in 10.0 mi WSW 12.7 mph - N/A   Clear
11:55 PM 73.4 °F - 64.6 °F 74% 29.82 in 10.0 mi WSW 15.0 mph - N/A   Clear